Theta_e
339 337 335 339 334 340 344 351 343 344 342 344 341 337 335 333 332 330 329 330 326 322 317 317 317 317 314 316 314 313 312 312 312 312 312 311 311 311 311 311 311 312 311
342 336 338 334 334 334 343 347 348 346 346 345 341 337 335 335 331 329 329 326 323 320 315 316 317 315 315 315 313 314 314 313 312 312 311 311 311 312 311 310 310 310 310
341 338 334 330 331 336 343 342 341 342 343 342 340 338 336 332 330 327 326 323 319 315 316 316 315 315 314 313 313 314 314 314 312 312 311 313 313 311 310 310 309 309 310
335 339 343 338 335 335 339 338 339 338 338 339 339 336 334 333 327 323 321 318 317 317 316 315 315 314 313 312 312 314 314 315 313 313 312 312 312 312 312 310 310 310 310
343 341 339 339 337 336 334 333 333 333 333 335 334 332 325 324 321 319 318 317 316 318 316 315 314 314 313 311 312 312 312 313 314 314 313 313 313 312 310 311 310 311 310
335 334 335 335 333 332 330 329 329 327 328 329 327 326 323 319 318 315 314 312 313 314 313 312 312 313 312 311 311 312 312 312 311 312 311 312 313 312 312 311 311 311 310
332 332 331 332 331 329 328 326 325 324 322 321 320 318 318 316 315 314 313 313 310 310 309 310 309 309 310 310 311 311 313 312 311 311 311 311 311 312 312 311 310 310 309
330 330 330 331 330 329 328 325 324 322 320 318 315 316 315 314 313 312 311 310 310 309 309 308 308 307 308 308 310 309 309 309 308 308 308 307 310 309 311 310 309 307 306
329 329 330 329 328 327 327 325 322 320 318 318 316 314 313 312 311 310 310 310 309 308 307 308 308 308 308 308 308 309 310 310 307 308 308 308 309 309 309 307 307 307 307
330 330 329 328 327 326 324 322 320 319 317 316 315 314 312 311 310 310 309 308 308 308 308 308 308 309 309 308 308 308 305 305 304 304 306 308 309 309 308 307 306 305 306
331 329 328 327 325 324 322 320 319 317 315 315 313 313 311 310 310 310 309 309 309 308 307 307 307 307 307 307 306 305 303 302 302 301 303 307 307 308 308 306 304 304 305
330 328 326 326 325 323 321 320 318 317 314 313 312 312 310 311 311 311 308 308 308 307 307 307 307 308 306 305 304 301 299 299 300 301 303 306 307 307 306 305 304 303 303
330 327 326 326 324 322 320 319 316 313 312 313 311 311 313 313 311 311 309 308 307 308 308 308 308 307 306 304 302 299 298 299 301 303 305 305 305 305 305 305 303 302 299
331 328 325 325 323 322 320 316 314 313 313 310 311 312 311 311 311 311 310 308 308 308 307 307 308 307 305 304 302 301 299 299 302 303 304 303 303 304 305 304 301 300 300
331 329 327 324 323 321 318 316 315 314 310 312 311 310 311 311 310 310 309 309 308 308 307 307 308 307 306 305 304 302 301 301 301 302 301 301 302 304 304 302 301 300 300
331 329 327 324 323 320 318 316 315 312 311 310 310 311 310 309 309 309 309 308 309 308 308 308 308 308 307 305 305 303 301 301 302 302 301 301 301 302 300 300 299 300 300
331 330 327 325 324 320 318 316 314 312 310 310 311 311 310 309 309 308 308 309 307 308 308 307 307 308 308 307 306 302 301 301 302 302 302 301 300 301 300 299 298 298 298
331 330 328 325 321 318 317 315 312 310 309 311 311 310 308 308 307 307 308 306 306 307 307 307 307 307 307 308 305 302 301 300 301 300 299 299 299 300 300 298 297 297 298
329 327 323 320 318 317 315 312 308 308 311 312 309 309 308 308 308 308 308 306 306 306 306 307 307 307 309 306 302 301 299 299 298 298 298 298 299 298 297 297 297 297 297
325 322 320 318 315 313 312 308 311 312 311 309 309 308 308 308 307 307 305 305 305 305 307 306 308 306 304 303 300 299 298 297 297 297 297 297 297 297 297 296 296 296 297
322 320 318 315 313 311 310 312 310 309 309 308 308 308 308 307 307 306 306 306 307 307 305 305 306 305 303 301 300 299 298 297 297 297 297 296 297 297 296 296 296 296 296
320 318 315 313 311 310 309 310 309 309 309 308 309 309 309 309 308 307 306 307 307 306 304 305 305 303 303 301 300 299 298 297 297 297 296 297 296 296 296 296 296 295 297
318 315 313 311 310 310 311 310 310 309 309 310 309 308 307 307 305 305 306 306 306 305 305 305 303 302 301 301 300 298 298 297 297 296 297 296 296 295 295 295 295 295 296
315 314 312 311 309 309 311 312 310 310 310 309 309 309 307 305 305 305 306 306 307 305 304 303 302 301 301 300 299 298 298 298 298 297 296 295 295 294 294 294 294 294 295
316 314 311 310 309 310 311 310 309 309 309 309 309 308 306 304 305 306 306 306 303 303 303 302 301 301 300 300 299 298 297 297 296 296 295 295 294 294 293 293 293 294 294
314 313 311 310 312 313 310 310 309 309 309 309 309 306 305 303 303 304 305 305 303 303 303 302 301 300 300 299 299 299 298 298 297 296 295 294 294 294 293 293 293 293 293
Wind_Speed
17 28 38 39 43 14 6 15 25 20 15 17 18 19 14 10 4 3 4 8 8 7 6 8 7 9 14 10 14 15 16 18 18 15 19 17 17 9 29 19 20 16 25
12 15 33 46 42 31 3 3 11 19 21 19 14 14 10 7 5 4 4 5 7 7 7 4 4 10 9 10 14 13 12 14 16 7 10 4 6 5 19 19 17 19 24
16 12 13 17 21 18 2 14 21 20 14 13 12 13 11 11 7 2 2 5 9 8 2 2 5 5 8 11 13 13 12 11 17 12 4 3 3 12 6 16 17 22 26
15 13 14 13 14 18 11 14 17 19 16 14 13 14 12 8 7 4 1 6 6 4 2 2 3 6 10 11 13 12 14 12 15 14 6 11 16 3 4 7 20 18 22
18 17 18 23 24 17 15 14 16 15 14 15 15 14 15 12 8 5 5 6 9 7 4 2 6 7 10 12 12 14 15 12 12 11 16 16 14 14 7 10 12 18 23
17 17 23 25 25 18 16 15 16 16 13 11 9 9 9 8 7 8 10 10 12 11 6 9 8 9 12 14 14 15 15 14 14 14 18 18 12 11 8 7 14 15 20
16 15 14 18 22 18 16 16 17 17 13 11 11 11 10 9 10 9 10 12 12 12 16 12 15 14 14 16 13 15 15 13 15 16 19 20 20 21 21 14 12 10 21
14 14 19 22 25 24 21 19 18 17 12 9 11 10 9 9 10 10 10 11 12 14 14 16 14 15 15 16 14 17 16 16 20 20 20 21 19 19 17 13 11 10 11
11 12 17 22 26 24 22 21 20 13 10 10 9 9 10 9 8 8 8 9 11 13 13 14 15 15 15 15 17 15 15 17 16 18 22 24 20 17 13 16 14 10 9
13 12 16 23 24 22 22 18 14 13 12 9 9 10 7 6 6 6 8 11 12 13 15 17 17 18 17 15 14 13 12 18 20 22 23 23 17 19 17 15 17 20 12
14 12 16 23 23 21 20 18 13 12 10 10 7 5 3 4 4 6 7 10 10 13 15 16 16 16 16 13 14 16 20 23 25 25 23 24 22 17 14 17 21 19 18
13 11 18 22 20 20 17 13 14 15 9 5 5 3 2 3 4 2 6 8 9 11 13 15 15 13 11 15 20 25 24 24 23 23 22 26 23 15 16 15 18 18 21
13 12 15 16 21 21 18 12 14 13 8 5 3 2 1 3 4 5 3 9 9 10 12 13 13 9 13 20 21 21 22 24 22 23 22 22 21 19 19 13 13 17 22
5 8 9 15 23 20 19 17 14 9 4 3 2 2 1 4 4 3 9 8 8 8 11 13 10 8 12 18 16 18 22 22 19 21 19 20 22 22 15 12 13 19 22
13 12 10 13 23 20 20 17 11 4 2 2 1 2 3 3 7 7 8 8 9 7 13 14 12 12 14 19 14 13 17 18 18 19 20 20 23 17 15 11 16 21 22
18 15 12 18 19 22 20 17 9 4 3 2 4 4 5 5 7 7 6 10 10 11 13 15 16 17 21 18 14 12 15 19 20 19 22 22 20 18 19 16 18 17 18
17 14 14 18 22 22 22 16 9 5 3 3 5 6 4 4 5 8 12 7 10 12 15 18 19 22 23 20 17 10 14 21 25 20 23 22 23 21 17 14 19 22 24
13 13 17 21 25 24 19 14 8 5 4 5 8 3 5 6 8 9 8 12 13 14 17 21 23 20 24 21 8 9 17 21 21 24 25 26 24 21 14 20 27 24 26
13 20 27 30 26 21 14 9 5 5 6 8 5 6 7 8 8 11 12 11 15 19 21 24 26 28 17 7 8 13 20 18 22 23 23 23 22 22 23 27 22 19 23
25 25 28 28 24 17 12 8 4 6 2 7 5 6 8 6 11 10 12 16 17 21 23 22 17 11 11 7 10 18 19 22 23 23 23 21 23 26 26 22 20 19 18
27 29 27 24 18 12 10 3 3 6 4 4 5 7 6 9 12 9 16 17 21 21 9 15 11 13 11 5 15 24 24 21 21 21 21 22 26 23 22 19 17 17 19
24 26 25 20 14 10 9 6 4 2 2 3 6 7 9 10 12 11 17 18 18 0 8 10 11 13 12 10 20 27 21 19 19 18 24 24 24 18 18 17 18 15 15
22 25 22 16 11 7 8 7 5 2 3 6 8 9 10 10 15 16 19 21 16 9 7 11 13 13 17 13 23 22 23 22 21 17 24 21 20 19 17 16 16 15 13
22 23 20 17 11 8 7 3 7 3 5 7 8 11 10 12 13 19 17 18 13 4 8 10 10 10 12 14 23 21 23 24 23 25 24 21 20 19 18 17 17 15 15
22 24 21 17 13 11 7 6 5 3 4 7 10 12 14 16 20 19 16 12 6 5 7 6 7 11 12 15 21 22 18 18 22 22 19 19 19 18 18 17 17 16 15
23 20 19 16 14 12 9 7 5 2 4 5 9 12 13 16 15 16 16 17 3 3 7 4 10 11 12 14 24 22 12 13 23 21 17 18 17 16 17 16 16 16 14
Wind_Direction
119 120 135 143 164 212 265 330 153 170 163 152 141 137 121 121 134 214 251 269 317 328 351 339 354 344 354 356 345 350 353 353 355 347 333 330 337 341 336 348 348 341 340
127 123 135 159 178 187 149 306 152 170 182 182 165 136 128 133 172 192 275 328 325 345 326 2 360 344 360 340 342 339 337 339 349 335 328 328 325 320 334 339 340 327 338
128 116 133 146 160 156 153 111 108 115 120 136 132 129 133 122 120 141 285 328 337 330 349 313 353 352 351 343 342 340 325 322 326 340 305 313 292 319 278 325 332 336 341
125 123 133 160 169 184 126 116 110 107 115 121 108 109 113 130 137 146 334 341 341 328 256 262 358 331 342 344 337 333 331 319 314 326 325 272 283 306 308 298 312 337 328
125 123 125 125 127 124 114 114 104 99 97 101 110 111 109 117 123 95 32 36 11 294 277 307 351 320 334 337 320 330 335 330 320 309 306 306 295 284 255 310 320 316 329
111 114 122 123 122 126 118 109 99 86 85 104 120 114 114 96 78 57 34 23 25 47 55 353 358 344 332 329 322 316 325 323 330 323 322 313 296 290 292 299 315 320 329
122 128 134 134 128 122 113 102 105 104 110 112 107 101 88 74 78 52 29 24 17 9 360 354 339 334 328 325 312 324 316 326 320 321 321 323 316 312 306 294 314 321 322
141 146 147 147 143 140 133 131 127 121 116 99 93 89 88 75 55 38 33 30 10 350 340 340 347 338 326 318 310 319 318 320 323 322 321 323 320 329 320 312 322 325 321
137 135 128 126 129 136 141 138 129 124 110 101 90 73 76 65 55 46 31 18 0 357 351 344 339 331 328 325 313 309 320 323 346 339 331 321 320 323 326 327 323 317 319
121 123 126 127 128 129 130 130 123 121 115 110 94 90 70 62 49 53 21 10 15 6 357 354 353 353 352 4 6 16 12 346 343 339 338 337 327 320 324 330 322 322 292
134 129 127 127 128 125 120 124 126 126 114 109 90 80 63 49 47 10 22 11 6 1 357 357 355 356 1 15 7 359 349 341 334 332 335 333 327 325 321 322 325 322 316
127 125 120 133 143 137 136 138 128 127 117 111 101 77 54 36 1 13 8 8 1 353 356 357 353 1 27 9 1 355 350 344 337 335 335 333 327 324 331 326 327 330 332
121 127 129 146 135 134 128 126 126 119 121 111 104 53 29 44 346 340 345 336 343 353 353 351 356 13 5 356 357 359 352 349 345 345 344 345 348 338 330 316 332 335 335
213 149 142 142 136 141 142 131 119 124 122 119 174 248 329 341 328 317 312 330 333 328 337 338 333 334 341 343 343 357 357 351 351 346 345 341 338 333 328 327 336 337 334
177 157 153 140 140 144 137 133 137 143 138 314 197 290 291 303 301 291 309 290 315 297 327 328 319 308 318 328 327 340 348 347 339 333 336 337 336 331 332 332 332 332 326
157 155 147 140 146 146 143 141 143 127 163 222 262 256 253 286 302 301 317 318 306 311 321 319 318 302 305 319 319 310 329 338 325 315 327 333 334 319 320 317 325 325 324
150 149 152 150 152 151 143 137 135 160 194 254 278 296 277 317 360 347 333 4 350 334 324 316 313 308 303 302 301 309 332 338 335 326 332 329 325 318 307 314 331 327 322
143 141 134 125 132 130 125 128 147 176 207 251 282 1 13 4 358 347 345 341 334 322 316 315 311 311 315 311 299 334 339 338 330 329 326 327 330 335 314 323 329 315 313
120 119 124 127 124 123 129 138 163 183 243 297 55 13 350 342 342 333 324 330 323 318 317 321 311 316 334 53 31 352 348 339 335 338 341 337 339 339 331 325 322 318 322
110 114 117 121 121 125 136 144 175 251 74 41 6 336 323 342 333 335 336 327 324 317 323 337 5 51 45 42 16 2 0 353 353 349 348 344 341 333 333 334 328 313 320
110 115 119 120 123 131 135 163 118 77 34 9 333 319 348 339 329 323 332 320 315 321 1 37 61 35 37 57 13 4 357 354 349 344 340 334 338 338 338 339 331 330 321
111 116 116 120 127 137 149 132 84 66 34 335 318 330 326 324 327 313 322 321 321 226 360 20 38 22 17 15 356 350 357 357 350 342 336 343 337 339 340 341 336 332 340
117 123 125 127 139 148 160 143 143 99 355 334 10 352 335 330 333 327 316 314 306 294 26 48 21 3 351 340 345 353 359 355 347 339 342 342 347 355 348 345 345 346 344
124 132 138 137 137 149 149 172 127 61 0 12 338 323 341 341 326 330 327 322 316 48 53 22 10 354 347 340 348 349 355 354 349 341 343 345 347 352 354 355 352 349 348
139 145 146 149 159 174 189 132 91 49 28 358 8 1 348 342 331 340 347 342 341 61 44 25 357 337 338 341 347 341 344 354 352 344 343 337 339 337 337 337 344 347 344
142 141 149 161 173 170 148 137 118 42 347 352 354 350 345 341 340 333 338 325 345 81 28 18 351 337 324 321 342 338 336 336 355 358 336 330 326 321 322 321 323 328 328